Osceola, IA

12:45 PM CST on February 06, 2016 (GMT -0600)
Osceola Municipal

Weather History for KI75 - April, 2013

Change the Weather History Date:

Monday, April 29, 2013

  Actual Average (KLWD) Record (KLWD)
Temperature  
Mean Temperature 68 °F 56 °F  
Max Temperature 81 °F 66 °F 88 °F (1987)
Min Temperature 54 °F 45 °F 32 °F (2008)
Degree Days  
Heating Degree Days 0 9  
Month to date heating degree days 396  
Since 1 July heating degree days 5885  
Cooling Degree Days 2 0  
Month to date cooling degree days 0  
Year to date cooling degree days 1  
Growing Degree Days 18 (Base 50)    
Moisture  
Dew Point 54 °F    
Average Humidity 63    
Maximum Humidity 84    
Minimum Humidity 41    
Precipitation  
Precipitation 0.04 in 0.19 in 1.30 in (2006)
Month to date precipitation 3.52  
Sea Level Pressure  
Sea Level Pressure 29.71 in    
Wind  
Wind Speed 10 mph (South)    
Max Wind Speed 17 mph    
Max Gust Speed 26 mph    
Visibility 10 miles    
Events      
T = Trace of Precipitation, MM = Missing Value Source: NWS Daily Summary

Daily Weather History Graph

Daily Weather History Graph

Search for Another Location

Airport or City:

Trip Planner

Search our weather history database for the weather conditions in past years. The results will help you decide how hot, cold, wet, or windy it might be!

Date:

Astronomy

Apr. 29, 2013 Rise Set
Actual Time 6:14 AM CDT 8:09 PM CDT
Civil Twilight 5:45 AM CDT 8:39 PM CDT
Nautical Twilight 5:09 AM CDT 9:15 PM CDT
Astronomical Twilight 4:30 AM CDT 9:55 PM CDT
Moon No Moon Rise 9:35 AM CDT (4/29)
Length of Visible Light 14h 54m
Length of Day
13h 54m
Waning Gibbous, 80% of the Moon is Illuminated
Apr 29
Waning Gibbous
May 2
Last Quarter
May 9
New
May 17
First Quarter
May 24
Full

Hourly Weather History & Observations

Time (CDT) Temp. Heat Index Dew Point Humidity Pressure Visibility Wind Dir Wind Speed Gust Speed Precip Events Conditions
12:15 AM 57.6 °F - 50.0 °F 76% 29.81 in 10.0 mi SSE 10.4 mph - N/A   Clear
12:35 AM 58.1 °F - 50.0 °F 74% 29.81 in 10.0 mi South 11.5 mph - N/A   Clear
12:55 AM 57.7 °F - 50.0 °F 75% 29.81 in 10.0 mi South 10.4 mph - N/A   Clear
1:15 AM 57.4 °F - 50.0 °F 76% 29.81 in 10.0 mi South 11.5 mph - N/A   Clear
1:35 AM 57.2 °F - 50.0 °F 77% 29.81 in 10.0 mi South 10.4 mph - N/A   Clear
1:55 AM 56.7 °F - 49.5 °F 77% 29.80 in 10.0 mi SSE 9.2 mph - N/A   Clear
2:15 AM 56.5 °F - 49.5 °F 77% 29.79 in 10.0 mi South 11.5 mph - N/A   Clear
2:35 AM 55.8 °F - 49.5 °F 79% 29.79 in 10.0 mi SSE 11.5 mph - N/A   Clear
2:55 AM 55.6 °F - 49.5 °F 80% 29.79 in 10.0 mi South 10.4 mph - N/A   Clear
3:15 AM 55.6 °F - 49.6 °F 80% 29.79 in 10.0 mi SSE 10.4 mph - N/A   Clear
3:35 AM 54.9 °F - 49.5 °F 82% 29.78 in 10.0 mi SSE 9.2 mph - N/A   Clear
3:55 AM 54.9 °F - 49.3 °F 81% 29.78 in 10.0 mi SSE 10.4 mph - N/A   Clear
4:15 AM 54.5 °F - 49.3 °F 83% 29.78 in 10.0 mi SSE 9.2 mph - N/A   Clear
4:35 AM 54.1 °F - 49.1 °F 83% 29.78 in 10.0 mi SSE 8.1 mph - N/A   Clear
4:55 AM 54.0 °F - 49.1 °F 84% 29.77 in 10.0 mi SSE 9.2 mph - N/A   Clear
5:15 AM 54.1 °F - 49.1 °F 83% 29.77 in 10.0 mi SSE 10.4 mph - N/A   Clear
5:35 AM 54.1 °F - 48.7 °F 82% 29.76 in 10.0 mi SSE 9.2 mph - N/A   Clear
5:55 AM 54.1 °F - 48.7 °F 82% 29.76 in 10.0 mi SSE 9.2 mph - N/A   Clear
6:15 AM 54.5 °F - 48.7 °F 81% 29.76 in 10.0 mi SSE 10.4 mph - N/A   Scattered Clouds
6:35 AM 54.5 °F - 48.4 °F 80% 29.76 in 10.0 mi South 11.5 mph - N/A   Scattered Clouds
6:55 AM 54.5 °F - 48.6 °F 80% 29.76 in 10.0 mi South 9.2 mph - N/A   Scattered Clouds
7:15 AM 54.7 °F - 48.7 °F 80% 29.77 in 10.0 mi South 8.1 mph - N/A   Scattered Clouds
7:35 AM 55.4 °F - 49.1 °F 79% 29.77 in 10.0 mi South 8.1 mph - N/A   Scattered Clouds
7:55 AM 55.4 °F - 49.3 °F 80% 29.76 in 10.0 mi South 9.2 mph - N/A   Scattered Clouds
8:15 AM 58.8 °F - 50.7 °F 74% 29.76 in 10.0 mi South 11.5 mph - N/A   Clear
8:35 AM 60.8 °F - 51.1 °F 70% 29.76 in 10.0 mi South 16.1 mph - N/A   Clear
8:55 AM 60.8 °F - 51.1 °F 70% 29.76 in 10.0 mi SSW 16.1 mph - N/A   Clear
9:15 AM 63.9 °F - 52.2 °F 66% 29.75 in 10.0 mi SSW 11.5 mph 17.3 mph N/A   Clear
9:35 AM 65.1 °F - 52.7 °F 64% 29.75 in 10.0 mi SW 11.5 mph - N/A   Clear
9:55 AM 64.8 °F - 52.7 °F 65% 29.75 in 10.0 mi SW 8.1 mph - N/A   Clear
10:15 AM 66.9 °F - 53.4 °F 62% 29.76 in 10.0 mi SW 10.4 mph - N/A   Clear
10:35 AM 68.0 °F - 54.1 °F 61% 29.75 in 10.0 mi SW 8.1 mph - N/A   Clear
10:55 AM 68.9 °F - 54.5 °F 60% 29.75 in 7.0 mi West 8.1 mph - N/A   Clear
11:15 AM 69.3 °F - 54.5 °F 59% 29.75 in 10.0 mi West 6.9 mph - N/A   Clear
11:35 AM 70.0 °F - 54.3 °F 57% 29.75 in 10.0 mi SSW 6.9 mph - N/A   Clear
11:55 AM 70.9 °F - 54.5 °F 56% 29.74 in 7.0 mi WSW 3.5 mph - N/A   Clear
12:15 PM 71.6 °F - 54.5 °F 55% 29.73 in 10.0 mi Calm Calm - N/A   Clear
12:35 PM 73.8 °F - 54.7 °F 51% 29.72 in 10.0 mi South 4.6 mph - N/A   Clear
12:55 PM 74.1 °F - 54.9 °F 51% 29.70 in 10.0 mi ESE 5.8 mph - N/A   Clear
1:15 PM 75.9 °F - 54.7 °F 48% 29.70 in 10.0 mi SSE 11.5 mph 17.3 mph N/A   Clear
1:35 PM 76.5 °F - 54.5 °F 46% 29.69 in 10.0 mi SSE 10.4 mph - N/A   Clear
1:55 PM 77.0 °F - 55.2 °F 47% 29.69 in 10.0 mi SSW 6.9 mph - N/A   Clear
2:15 PM 77.9 °F - 54.9 °F 45% 29.68 in 10.0 mi South 6.9 mph - N/A   Clear
2:35 PM 77.5 °F - 54.9 °F 45% 29.69 in 10.0 mi South 10.4 mph - N/A   Clear
2:55 PM - - - N/A% - - North - - N/A   Unknown
3:15 PM 80.2 °F 80.2 °F 54.7 °F 41% 29.67 in 10.0 mi SSW 9.2 mph - N/A   Clear
3:35 PM 79.7 °F - 53.8 °F 41% 29.66 in 10.0 mi South 12.7 mph - N/A   Clear
3:55 PM 80.2 °F 80.3 °F 55.0 °F 42% 29.65 in 10.0 mi South 9.2 mph 16.1 mph N/A   Clear
4:15 PM 80.4 °F 80.3 °F 54.5 °F 41% 29.64 in 10.0 mi South 11.5 mph 19.6 mph N/A   Clear
4:35 PM 79.9 °F - 55.0 °F 42% 29.64 in 10.0 mi South 13.8 mph 18.4 mph N/A   Clear
4:55 PM 79.0 °F - 54.9 °F 43% 29.63 in 10.0 mi South 11.5 mph 17.3 mph N/A   Clear
5:15 PM 81.1 °F 81.0 °F 55.9 °F 42% 29.62 in 10.0 mi South 11.5 mph - N/A   Clear
5:35 PM 79.9 °F - 56.5 °F 45% 29.61 in 10.0 mi South 13.8 mph - N/A   Clear
5:55 PM 79.3 °F - 56.8 °F 46% 29.61 in 10.0 mi South 12.7 mph 19.6 mph N/A   Clear
6:15 PM 81.0 °F 81.0 °F 57.0 °F 44% 29.61 in 10.0 mi SSW 12.7 mph 20.7 mph N/A   Clear
6:35 PM 80.6 °F 80.8 °F 57.6 °F 45% 29.61 in 10.0 mi South 12.7 mph - N/A   Clear
6:55 PM 79.5 °F - 58.3 °F 48% 29.61 in 10.0 mi South 12.7 mph 20.7 mph N/A   Scattered Clouds
7:15 PM 78.8 °F - 58.3 °F 49% 29.61 in 10.0 mi South 12.7 mph - N/A   Scattered Clouds
7:35 PM 77.5 °F - 58.5 °F 52% 29.60 in 10.0 mi South 8.1 mph - N/A   Clear
7:55 PM 76.1 °F - 58.5 °F 54% 29.60 in 7.0 mi South 8.1 mph - N/A   Clear
8:15 PM 74.1 °F - 58.5 °F 58% 29.60 in 10.0 mi SSE 8.1 mph - N/A   Clear
8:35 PM 72.5 °F - 58.3 °F 61% 29.61 in 10.0 mi SSE 9.2 mph - N/A   Clear
8:55 PM 73.0 °F - 58.3 °F 60% 29.61 in 10.0 mi South 11.5 mph - N/A   Clear
9:15 PM 72.5 °F - 58.6 °F 62% 29.61 in 7.0 mi South 10.4 mph - N/A   Clear
9:35 PM 71.8 °F - 59.0 °F 64% 29.61 in 10.0 mi South 10.4 mph - N/A   Clear
9:55 PM 72.0 °F - 59.0 °F 64% 29.61 in 10.0 mi South 11.5 mph - N/A   Clear
10:35 PM 71.4 °F - 59.2 °F 65% 29.60 in 10.0 mi South 12.7 mph - N/A   Clear
10:55 PM 70.7 °F - 59.2 °F 67% 29.60 in 10.0 mi South 15.0 mph 19.6 mph N/A   Clear
11:15 PM 70.9 °F - 59.2 °F 66% 29.59 in 10.0 mi South 15.0 mph 19.6 mph N/A   Clear
11:35 PM 70.9 °F - 59.2 °F 66% 29.59 in 10.0 mi South 16.1 mph 23.0 mph N/A   Clear
11:55 PM 71.2 °F - 59.0 °F 65% 29.59 in 10.0 mi South 17.3 mph 26.5 mph N/A   Clear